Location: Sobotiste
(48.7170°N, 17.4000°E)
Time: 16:03:12
(UTC+02:00)

Envisat - Visible Passes

Search period start: 24 June 2017 00:00
Search period end: 04 July 2017 00:00
Orbit: 764 x 766 km, 98.2° (Epoch: 23 June)

Date Brightness Start Highest point End Pass type
(mag) Time Alt. Az. Time Alt. Az. Time Alt. Az.
24 Jun 5.5 22:08:06 10° SW 22:11:21 17° W 22:14:38 10° NW visible
25 Jun 4.6 21:29:41 10° SSW 21:34:17 34° W 21:38:54 10° NNW visible
27 Jun 5.3 21:56:21 10° SW 22:00:08 21° W 22:03:57 10° NW visible
29 Jun 5.7 22:24:01 10° WSW 22:26:07 12° W 22:28:12 10° WNW visible
30 Jun 5.0 21:44:46 10° SSW 21:48:57 25° W 21:53:10 10° NW visible
02 Jul 5.5 22:11:53 10° SW 22:14:52 16° W 22:17:52 10° NW visible
03 Jul 4.7 21:33:17 10° SSW 21:37:46 31° W 21:42:17 10° NNW visible
